Location: Baggettsville
(36.4767°N, 86.7303°W)
Time: 08:29:09
(UTC+00:00)

GPS 2-04 Rocket1 - Pass Details

Date: 29 October 2020
Orbit: 417 x 546 km, 35.6° (Epoch: 04 December)

Event Time Altitude Azimuth Distance (km) Brightness Sun altitude
Rises 23:30:55 0° 242° (WSW) 2,587 8.0 -8.2°
Reaches altitude 10° 23:33:09 10° 236° (WSW) 1,726 6.6 -8.7°
Maximum altitude 23:36:58 47° 163° (SSE) 703 3.3 -9.4°
Enters shadow 23:40:22 14° 91° (E) 1,572 4.5 -10.1°
